SHU565 UHMP-UHPL

Flight info

Callsign SHU565
Flight time N/A
Altitude FL160
Route MAKUB B970 OKEPA A803 OSKON G707 LAPRU
Aircraft C160/M-S/N

Departure

Time 2026-04-11 15:59
Airport Pevek Airport (UHMP)

Arrival

Time N/A
Airport Palana Airport (UHPL)
Time Latitude Longitude Altitude Speed Heading
2026-04-11 15:54 69.78765 170.60114 21 ft 0 kts 78°
2026-04-11 15:54 69.78766 170.60125 21 ft 2 kts 72°
2026-04-11 15:54 69.78777 170.60144 24 ft 2 kts
2026-04-11 15:55 69.78796 170.60112 24 ft 5 kts 316°
2026-04-11 15:55 69.78826 170.59998 24 ft 9 kts 304°
2026-04-11 15:55 69.78840 170.59856 23 ft 9 kts 263°
2026-04-11 15:55 69.78824 170.59647 24 ft 13 kts 257°
2026-04-11 15:56 69.78816 170.59427 26 ft 9 kts 289°
2026-04-11 15:56 69.78873 170.59297 26 ft 14 kts 344°
2026-04-11 15:56 69.78983 170.59226 25 ft 19 kts 348°
2026-04-11 15:56 69.79122 170.59134 24 ft 22 kts 346°
2026-04-11 15:57 69.79259 170.59044 26 ft 16 kts 347°
2026-04-11 15:57 69.79361 170.59043 27 ft 10 kts 19°
2026-04-11 15:57 69.79409 170.59035 25 ft 7 kts 309°
2026-04-11 15:57 69.79386 170.58965 26 ft 7 kts 184°
2026-04-11 15:58 69.79370 170.58971 25 ft 0 kts 165°
2026-04-11 15:58 69.79303 170.59024 24 ft 35 kts 166°
2026-04-11 15:58 69.78870 170.59306 26 ft 89 kts 167°
2026-04-11 15:59 69.78154 170.59777 113 ft 113 kts 171°
2026-04-11 15:59 69.77330 170.60291 369 ft 129 kts 168°
2026-04-11 15:59 69.76457 170.61151 767 ft 138 kts 163°
2026-04-11 15:59 69.75499 170.61983 1226 ft 152 kts 166°
2026-04-11 16:00 69.74434 170.62860 1646 ft 170 kts 165°
2026-04-11 16:00 69.73248 170.63825 1938 ft 182 kts 167°
2026-04-11 16:00 69.71988 170.63623 2181 ft 187 kts 206°
2026-04-11 16:00 69.71112 170.60986 2481 ft 186 kts 248°
2026-04-11 16:01 69.70682 170.57507 2879 ft 185 kts 252°
2026-04-11 16:01 69.70216 170.54047 3274 ft 186 kts 251°
2026-04-11 16:01 69.69735 170.50605 3669 ft 186 kts 251°
2026-04-11 16:01 69.69262 170.47135 4056 ft 187 kts 251°
2026-04-11 16:02 69.68794 170.43664 4443 ft 187 kts 251°
2026-04-11 16:02 69.68327 170.40173 4823 ft 187 kts 251°
2026-04-11 16:02 69.67859 170.36674 5199 ft 188 kts 251°
2026-04-11 16:02 69.67392 170.33174 5521 ft 188 kts 251°
2026-04-11 16:03 69.66931 170.29668 5801 ft 189 kts 251°
2026-04-11 16:03 69.66469 170.26125 6089 ft 192 kts 251°
2026-04-11 16:03 69.65928 170.22597 6378 ft 195 kts 239°
2026-04-11 16:03 69.64920 170.19967 6627 ft 202 kts 210°
2026-04-11 16:04 69.63589 170.18652 6891 ft 203 kts 199°
2026-04-11 16:04 69.62303 170.17075 7158 ft 201 kts 214°
2026-04-11 16:04 69.61237 170.14526 7450 ft 199 kts 227°
2026-04-11 16:04 69.60259 170.11741 7736 ft 199 kts 226°
2026-04-11 16:05 69.59228 170.09082 8009 ft 200 kts 224°
2026-04-11 16:05 69.58196 170.06436 8289 ft 200 kts 225°
2026-04-11 16:05 69.57178 170.03751 8580 ft 200 kts 225°
2026-04-11 16:06 69.55128 169.98404 9136 ft 200 kts 224°
2026-04-11 16:06 69.54100 169.95735 9417 ft 200 kts 225°
2026-04-11 16:06 69.53072 169.93070 9702 ft 200 kts 225°
2026-04-11 16:06 69.52045 169.90406 9975 ft 200 kts 224°
2026-04-11 16:07 69.51017 169.87744 10232 ft 200 kts 224°
2026-04-11 16:07 69.49988 169.85087 10483 ft 200 kts 224°
2026-04-11 16:07 69.48963 169.82443 10737 ft 199 kts 224°
2026-04-11 16:07 69.47938 169.79790 10989 ft 199 kts 224°
2026-04-11 16:08 69.46914 169.77157 11254 ft 199 kts 224°
2026-04-11 16:08 69.45890 169.74524 11486 ft 198 kts 224°
2026-04-11 16:08 69.44869 169.71901 11745 ft 198 kts 224°
2026-04-11 16:08 69.43847 169.69279 11996 ft 198 kts 224°
2026-04-11 16:09 69.42825 169.66670 12240 ft 198 kts 224°
2026-04-11 16:09 69.41804 169.64053 12486 ft 198 kts 223°
2026-04-11 16:09 69.40776 169.61425 12673 ft 201 kts 223°
2026-04-11 16:09 69.39728 169.58753 12811 ft 205 kts 223°
2026-04-11 16:10 69.38659 169.56030 12955 ft 208 kts 223°
2026-04-11 16:10 69.37582 169.53292 13111 ft 209 kts 223°
2026-04-11 16:10 69.36499 169.50537 13281 ft 210 kts 223°
2026-04-11 16:10 69.35412 169.47784 13437 ft 210 kts 223°
2026-04-11 16:11 69.34324 169.45028 13603 ft 211 kts 223°
2026-04-11 16:11 69.33231 169.42261 13772 ft 211 kts 223°
2026-04-11 16:11 69.32136 169.39498 13943 ft 212 kts 223°
2026-04-11 16:11 69.31041 169.36735 14080 ft 212 kts 223°
2026-04-11 16:12 69.29943 169.33968 14226 ft 212 kts 223°
2026-04-11 16:12 69.28842 169.31197 14366 ft 213 kts 223°
2026-04-11 16:12 69.27738 169.28427 14507 ft 213 kts 222°
2026-04-11 16:12 69.26632 169.25656 14652 ft 213 kts 222°
2026-04-11 16:13 69.25526 169.22886 14794 ft 214 kts 222°
2026-04-11 16:13 69.24414 169.20101 14932 ft 214 kts 222°
2026-04-11 16:13 69.23300 169.17321 15083 ft 214 kts 222°
2026-04-11 16:13 69.22187 169.14545 15214 ft 215 kts 222°
2026-04-11 16:14 69.21069 169.11760 15358 ft 215 kts 222°
2026-04-11 16:14 69.19925 169.09057 15491 ft 215 kts 219°
2026-04-11 16:14 69.18773 169.06378 15633 ft 216 kts 221°
2026-04-11 16:14 69.17644 169.03600 15771 ft 216 kts 221°
2026-04-11 16:15 69.16496 169.00883 15911 ft 217 kts 220°
2026-04-11 16:15 69.15338 168.98179 16040 ft 217 kts 220°
2026-04-11 16:15 69.14182 168.95459 16146 ft 219 kts 220°
2026-04-11 16:15 69.13004 168.92693 16149 ft 224 kts 220°
2026-04-11 16:16 69.11798 168.89872 16150 ft 228 kts 220°
2026-04-11 16:16 69.10579 168.87020 16155 ft 230 kts 220°
2026-04-11 16:16 69.09342 168.84134 16157 ft 233 kts 220°
2026-04-11 16:16 69.08095 168.81223 16158 ft 235 kts 220°
2026-04-11 16:17 69.06840 168.78304 16162 ft 236 kts 220°
2026-04-11 16:17 69.05577 168.75373 16162 ft 237 kts 220°
2026-04-11 16:17 69.04313 168.72434 16153 ft 238 kts 220°
2026-04-11 16:17 69.03043 168.69492 16161 ft 238 kts 220°
2026-04-11 16:18 69.01768 168.66543 16160 ft 238 kts 220°
2026-04-11 16:18 69.00495 168.63600 16165 ft 239 kts 220°
2026-04-11 16:18 68.99215 168.60652 16159 ft 239 kts 220°
2026-04-11 16:18 68.97939 168.57714 16159 ft 239 kts 220°
2026-04-11 16:19 68.96660 168.54773 16162 ft 239 kts 220°
2026-04-11 16:19 68.95381 168.51837 16163 ft 239 kts 220°
2026-04-11 16:19 68.94100 168.48904 16161 ft 239 kts 220°
2026-04-11 16:19 68.92817 168.45967 16163 ft 239 kts 220°
2026-04-11 16:20 68.91537 168.43039 16164 ft 239 kts 220°
2026-04-11 16:20 68.90253 168.40113 16162 ft 239 kts 219°
2026-04-11 16:20 68.88970 168.37193 16168 ft 239 kts 219°
2026-04-11 16:20 68.87686 168.34272 16166 ft 239 kts 219°
2026-04-11 16:21 68.86401 168.31352 16166 ft 239 kts 219°
2026-04-11 16:21 68.85120 168.28449 16171 ft 239 kts 219°
2026-04-11 16:21 68.83833 168.25536 16161 ft 239 kts 219°
2026-04-11 16:21 68.82549 168.22635 16163 ft 239 kts 219°
2026-04-11 16:22 68.81259 168.19727 16161 ft 239 kts 219°
2026-04-11 16:22 68.79973 168.16827 16161 ft 239 kts 219°
2026-04-11 16:22 68.78685 168.13924 16167 ft 239 kts 219°
2026-04-11 16:22 68.77396 168.11038 16166 ft 239 kts 219°
2026-04-11 16:23 68.76109 168.08147 16166 ft 239 kts 219°
2026-04-11 16:23 68.74822 168.05263 16166 ft 239 kts 219°
2026-04-11 16:23 68.73535 168.02389 16164 ft 239 kts 219°
2026-04-11 16:23 68.72244 167.99505 16165 ft 239 kts 219°
2026-04-11 16:24 68.70959 167.96643 16163 ft 239 kts 219°
2026-04-11 16:24 68.69668 167.93771 16164 ft 239 kts 219°
2026-04-11 16:24 68.68378 167.90903 16163 ft 239 kts 219°
2026-04-11 16:24 68.67088 167.88038 16169 ft 239 kts 219°
2026-04-11 16:25 68.65794 167.85175 16164 ft 239 kts 219°
2026-04-11 16:25 68.64503 167.82321 16167 ft 239 kts 219°
2026-04-11 16:25 68.63209 167.79460 16162 ft 239 kts 219°
2026-04-11 16:25 68.61915 167.76609 16164 ft 239 kts 219°
2026-04-11 16:26 68.60622 167.73756 16164 ft 239 kts 219°
2026-04-11 16:26 68.59329 167.70916 16158 ft 238 kts 219°
2026-04-11 16:26 68.58037 167.68085 16162 ft 239 kts 219°
2026-04-11 16:26 68.56741 167.65245 16160 ft 239 kts 219°
2026-04-11 16:27 68.55448 167.62409 16162 ft 239 kts 219°
2026-04-11 16:27 68.54177 167.59632 16163 ft 238 kts 219°
2026-04-11 16:27 68.52882 167.56812 16160 ft 239 kts 219°
2026-04-11 16:27 68.51587 167.53989 16163 ft 239 kts 219°
2026-04-11 16:28 68.50291 167.51166 16161 ft 239 kts 218°
2026-04-11 16:28 68.48992 167.48347 16165 ft 239 kts 218°
2026-04-11 16:28 68.47698 167.45542 16163 ft 239 kts 218°
2026-04-11 16:28 68.46403 167.42737 16166 ft 238 kts 218°
2026-04-11 16:29 68.45105 167.39931 16167 ft 238 kts 218°
2026-04-11 16:29 68.43812 167.37140 16166 ft 238 kts 218°
2026-04-11 16:29 68.42516 167.34344 16169 ft 238 kts 218°
2026-04-11 16:29 68.41219 167.31549 16163 ft 238 kts 218°
2026-04-11 16:30 68.39921 167.28761 16150 ft 239 kts 218°
2026-04-11 16:30 68.38621 167.25976 16155 ft 238 kts 218°
2026-04-11 16:30 68.37326 167.23199 16171 ft 238 kts 218°
2026-04-11 16:30 68.36028 167.20423 16170 ft 239 kts 218°
2026-04-11 16:31 68.34722 167.17636 16155 ft 239 kts 218°
2026-04-11 16:31 68.33422 167.14858 16166 ft 239 kts 218°
2026-04-11 16:31 68.32118 167.12080 16173 ft 239 kts 218°
2026-04-11 16:31 68.30816 167.09313 16163 ft 239 kts 218°
2026-04-11 16:32 68.29512 167.06541 16178 ft 239 kts 218°
2026-04-11 16:32 68.28208 167.03777 16169 ft 238 kts 218°
2026-04-11 16:32 68.26906 167.01024 16176 ft 238 kts 218°
2026-04-11 16:32 68.25604 166.98269 16173 ft 238 kts 218°
2026-04-11 16:33 68.24303 166.95523 16178 ft 239 kts 218°
2026-04-11 16:33 68.22996 166.92767 16172 ft 239 kts 218°
2026-04-11 16:33 68.21690 166.90019 16170 ft 239 kts 218°
2026-04-11 16:33 68.20384 166.87275 16182 ft 239 kts 218°
2026-04-11 16:34 68.19076 166.84532 16180 ft 239 kts 218°
2026-04-11 16:34 68.17770 166.81795 16170 ft 239 kts 218°
2026-04-11 16:34 68.16463 166.79055 16177 ft 239 kts 218°
2026-04-11 16:34 68.15156 166.76323 16185 ft 238 kts 218°
2026-04-11 16:35 68.13847 166.73600 16184 ft 239 kts 218°
2026-04-11 16:35 68.12534 166.70868 16187 ft 239 kts 218°
2026-04-11 16:35 68.11225 166.68141 16182 ft 239 kts 218°
2026-04-11 16:35 68.09914 166.65414 16185 ft 239 kts 218°
2026-04-11 16:36 68.08599 166.62689 16181 ft 239 kts 218°
2026-04-11 16:36 68.07284 166.59972 16181 ft 240 kts 218°
2026-04-11 16:36 68.05969 166.57247 16189 ft 240 kts 218°
2026-04-11 16:36 68.04652 166.54528 16188 ft 240 kts 218°
2026-04-11 16:37 68.03337 166.51822 16187 ft 239 kts 218°
2026-04-11 16:37 68.02021 166.49111 16181 ft 239 kts 218°
2026-04-11 16:37 68.00706 166.46408 16186 ft 239 kts 218°
2026-04-11 16:37 67.99393 166.43717 16190 ft 239 kts 218°
2026-04-11 16:38 67.98081 166.41025 16196 ft 239 kts 218°
2026-04-11 16:38 67.96764 166.38328 16193 ft 239 kts 217°
2026-04-11 16:38 67.95451 166.35651 16191 ft 239 kts 217°
2026-04-11 16:38 67.94138 166.32968 16195 ft 239 kts 217°
2026-04-11 16:39 67.92824 166.30288 16192 ft 239 kts 217°
2026-04-11 16:39 67.91508 166.27617 16196 ft 238 kts 217°
2026-04-11 16:39 67.90194 166.24943 16201 ft 238 kts 217°
2026-04-11 16:39 67.88879 166.22276 16202 ft 238 kts 217°
2026-04-11 16:40 67.87566 166.19617 16197 ft 238 kts 217°
2026-04-11 16:40 67.86250 166.16958 16200 ft 238 kts 217°
2026-04-11 16:40 67.84935 166.14302 16200 ft 238 kts 217°
2026-04-11 16:40 67.83703 166.11387 16191 ft 238 kts 224°
2026-04-11 16:41 67.82511 166.08356 16193 ft 238 kts 223°
2026-04-11 16:41 67.81300 166.05394 16194 ft 238 kts 222°
2026-04-11 16:41 67.80087 166.02438 16198 ft 238 kts 223°
2026-04-11 16:41 67.78881 165.99454 16210 ft 238 kts 223°
2026-04-11 16:42 67.77675 165.96481 16205 ft 238 kts 223°
2026-04-11 16:42 67.76465 165.93515 16208 ft 238 kts 223°
2026-04-11 16:42 67.75255 165.90544 16206 ft 238 kts 223°
2026-04-11 16:43 67.72834 165.84619 16208 ft 238 kts 222°
2026-04-11 16:43 67.71625 165.81668 16207 ft 238 kts 222°
2026-04-11 16:43 67.70412 165.78706 16206 ft 238 kts 222°
2026-04-11 16:43 67.69201 165.75758 16207 ft 238 kts 222°
2026-04-11 16:44 67.67989 165.72811 16208 ft 238 kts 222°
2026-04-11 16:44 67.66774 165.69865 16208 ft 238 kts 222°
2026-04-11 16:44 67.65562 165.66925 16207 ft 238 kts 222°
2026-04-11 16:44 67.64350 165.63991 16213 ft 238 kts 222°
2026-04-11 16:45 67.63136 165.61059 16216 ft 237 kts 222°
2026-04-11 16:45 67.61923 165.58129 16216 ft 237 kts 222°
2026-04-11 16:45 67.60712 165.55209 16217 ft 237 kts 222°
2026-04-11 16:45 67.59498 165.52289 16217 ft 237 kts 222°
2026-04-11 16:46 67.58285 165.49374 16218 ft 237 kts 222°
2026-04-11 16:46 67.57074 165.46468 16216 ft 237 kts 222°
2026-04-11 16:46 67.55862 165.43564 16212 ft 237 kts 222°
2026-04-11 16:46 67.54646 165.40654 16215 ft 237 kts 222°
2026-04-11 16:47 67.53432 165.37757 16215 ft 237 kts 222°
2026-04-11 16:47 67.52220 165.34861 16217 ft 237 kts 222°
2026-04-11 16:47 67.51007 165.31972 16225 ft 237 kts 222°
2026-04-11 16:47 67.49791 165.29081 16218 ft 237 kts 222°
2026-04-11 16:48 67.48575 165.26194 16215 ft 237 kts 222°
2026-04-11 16:48 67.47360 165.23308 16218 ft 236 kts 222°
2026-04-11 16:48 67.46145 165.20431 16220 ft 237 kts 221°
2026-04-11 16:48 67.44927 165.17553 16219 ft 237 kts 221°
2026-04-11 16:49 67.43707 165.14672 16219 ft 237 kts 221°
2026-04-11 16:49 67.42488 165.11796 16220 ft 237 kts 221°
2026-04-11 16:49 67.41268 165.08923 16222 ft 237 kts 221°
2026-04-11 16:49 67.40048 165.06054 16221 ft 237 kts 221°
2026-04-11 16:50 67.38827 165.03189 16221 ft 237 kts 221°
2026-04-11 16:50 67.37608 165.00329 16221 ft 237 kts 221°
2026-04-11 16:50 67.36386 164.97466 16227 ft 236 kts 221°
2026-04-11 16:50 67.35166 164.94617 16224 ft 237 kts 221°
2026-04-11 16:51 67.33943 164.91763 16225 ft 237 kts 221°
2026-04-11 16:51 67.32721 164.88911 16222 ft 237 kts 221°
2026-04-11 16:51 67.31496 164.86062 16220 ft 237 kts 221°
2026-04-11 16:51 67.30272 164.83214 16221 ft 237 kts 221°
2026-04-11 16:52 67.29046 164.80372 16222 ft 237 kts 221°
2026-04-11 16:52 67.27823 164.77536 16221 ft 237 kts 221°
2026-04-11 16:52 67.26599 164.74700 16225 ft 237 kts 221°
2026-04-11 16:52 67.25373 164.71868 16222 ft 237 kts 221°
2026-04-11 16:53 67.24147 164.69040 16222 ft 237 kts 221°
2026-04-11 16:53 67.22922 164.66214 16224 ft 237 kts 221°
2026-04-11 16:53 67.21695 164.63388 16230 ft 237 kts 221°
2026-04-11 16:53 67.20468 164.60573 16228 ft 236 kts 221°
2026-04-11 16:54 67.19244 164.57764 16228 ft 236 kts 221°
2026-04-11 16:54 67.18018 164.54950 16226 ft 236 kts 221°
2026-04-11 16:54 67.16789 164.52139 16223 ft 237 kts 221°
2026-04-11 16:54 67.15558 164.49333 16228 ft 237 kts 221°
2026-04-11 16:55 67.14330 164.46525 16227 ft 237 kts 221°
2026-04-11 16:55 67.13099 164.43717 16227 ft 237 kts 221°
2026-04-11 16:55 67.11869 164.40923 16227 ft 237 kts 221°
2026-04-11 16:55 67.10637 164.38126 16229 ft 236 kts 221°
2026-04-11 16:56 67.08180 164.32550 16233 ft 236 kts 221°
2026-04-11 16:56 67.06947 164.29764 16228 ft 237 kts 221°
2026-04-11 16:56 67.05718 164.26983 16233 ft 236 kts 221°
2026-04-11 16:57 67.04489 164.24209 16229 ft 237 kts 221°
2026-04-11 16:57 67.03255 164.21433 16231 ft 236 kts 221°
2026-04-11 16:57 67.02023 164.18661 16236 ft 236 kts 221°
2026-04-11 16:57 67.00794 164.15897 16235 ft 236 kts 221°
2026-04-11 16:58 66.99560 164.13128 16233 ft 236 kts 221°
2026-04-11 16:58 66.98328 164.10371 16236 ft 236 kts 221°
2026-04-11 16:58 66.97095 164.07612 16228 ft 236 kts 220°
2026-04-11 16:58 66.95862 164.04858 16232 ft 236 kts 221°
2026-04-11 16:59 66.94631 164.02107 16238 ft 236 kts 221°
2026-04-11 16:59 66.93394 163.99354 16235 ft 236 kts 220°
2026-04-11 16:59 66.92160 163.96607 16229 ft 237 kts 220°
2026-04-11 16:59 66.90924 163.93861 16231 ft 236 kts 220°
2026-04-11 17:00 66.89686 163.91116 16231 ft 236 kts 220°
2026-04-11 17:00 66.88451 163.88381 16234 ft 236 kts 220°
2026-04-11 17:00 66.87217 163.85647 16231 ft 236 kts 220°
2026-04-11 17:00 66.85979 163.82913 16238 ft 236 kts 220°
2026-04-11 17:01 66.84745 163.80192 16237 ft 236 kts 220°
2026-04-11 17:01 66.83508 163.77468 16236 ft 235 kts 220°
2026-04-11 17:01 66.82273 163.74747 16235 ft 236 kts 220°
2026-04-11 17:01 66.81038 163.72034 16236 ft 235 kts 220°
2026-04-11 17:02 66.79802 163.69323 16236 ft 235 kts 220°
2026-04-11 17:02 66.78566 163.66617 16236 ft 235 kts 220°
2026-04-11 17:02 66.77330 163.63911 16243 ft 235 kts 220°
2026-04-11 17:02 66.76095 163.61212 16241 ft 235 kts 220°
2026-04-11 17:03 66.74858 163.58514 16242 ft 235 kts 220°
2026-04-11 17:03 66.73622 163.55821 16236 ft 235 kts 220°
2026-04-11 17:03 66.72385 163.53127 16237 ft 235 kts 220°
2026-04-11 17:03 66.71146 163.50437 16242 ft 235 kts 220°
2026-04-11 17:04 66.69911 163.47754 16240 ft 235 kts 220°
2026-04-11 17:04 66.68671 163.45068 16237 ft 235 kts 220°
2026-04-11 17:04 66.67436 163.42395 16261 ft 234 kts 220°
2026-04-11 17:04 66.66200 163.39724 16240 ft 235 kts 220°
2026-04-11 17:05 66.64964 163.37056 16243 ft 235 kts 220°
2026-04-11 17:05 66.63726 163.34389 16244 ft 235 kts 220°
2026-04-11 17:05 66.62491 163.31730 16245 ft 234 kts 220°
2026-04-11 17:05 66.61254 163.29070 16243 ft 235 kts 220°
2026-04-11 17:06 66.60013 163.26408 16251 ft 234 kts 220°
2026-04-11 17:06 66.58776 163.23755 16246 ft 234 kts 220°
2026-04-11 17:06 66.57535 163.21099 16239 ft 235 kts 220°
2026-04-11 17:06 66.56294 163.18448 16237 ft 235 kts 220°
2026-04-11 17:07 66.55055 163.15802 16241 ft 234 kts 220°
2026-04-11 17:07 66.53815 163.13155 16240 ft 235 kts 220°
2026-04-11 17:07 66.52572 163.10513 16232 ft 235 kts 220°
2026-04-11 17:07 66.51329 163.07870 16237 ft 235 kts 220°
2026-04-11 17:08 66.50084 163.05224 16236 ft 235 kts 220°
2026-04-11 17:08 66.48838 163.02583 16234 ft 235 kts 220°
2026-04-11 17:08 66.47591 162.99942 16229 ft 235 kts 220°
2026-04-11 17:08 66.46341 162.97302 16232 ft 236 kts 220°
2026-04-11 17:09 66.45094 162.94666 16233 ft 236 kts 220°
2026-04-11 17:09 66.43843 162.92026 16234 ft 236 kts 220°
2026-04-11 17:09 66.42590 162.89390 16239 ft 235 kts 220°
2026-04-11 17:09 66.41338 162.86756 16237 ft 236 kts 219°
2026-04-11 17:10 66.40085 162.84122 16241 ft 236 kts 219°
2026-04-11 17:13 66.23680 162.49997 16241 ft 238 kts 219°
2026-04-11 17:13 66.22413 162.47381 16246 ft 237 kts 219°
2026-04-11 17:13 66.21144 162.44767 16243 ft 238 kts 219°
2026-04-11 17:14 66.19873 162.42160 16240 ft 238 kts 219°
2026-04-11 17:14 66.18601 162.39548 16038 ft 238 kts 219°
2026-04-11 17:14 66.17330 162.36943 16170 ft 238 kts 219°
2026-04-11 17:14 66.16056 162.34335 16244 ft 240 kts 219°
2026-04-11 17:15 66.10790 162.23592 16247 ft 250 kts 219°
2026-04-11 17:16 66.09448 162.20863 16249 ft 251 kts 218°
2026-04-11 17:16 66.08102 162.18128 16248 ft 252 kts 218°
2026-04-11 17:16 66.06753 162.15398 16251 ft 252 kts 218°
2026-04-11 17:16 66.05398 162.12654 16249 ft 252 kts 218°
2026-04-11 17:17 66.04044 162.09915 16250 ft 253 kts 218°
2026-04-11 17:17 66.02685 162.07174 16253 ft 253 kts 218°
2026-04-11 17:17 66.01328 162.04437 16254 ft 253 kts 218°
2026-04-11 17:17 65.99968 162.01701 16257 ft 253 kts 218°
2026-04-11 17:18 65.98607 161.98968 16251 ft 254 kts 218°
2026-04-11 17:18 65.97242 161.96225 16253 ft 254 kts 218°
2026-04-11 17:18 65.95880 161.93496 16254 ft 254 kts 218°
2026-04-11 17:18 65.94515 161.90767 16258 ft 254 kts 218°
2026-04-11 17:19 65.93150 161.88036 16256 ft 254 kts 218°
2026-04-11 17:19 65.91784 161.85310 16252 ft 254 kts 218°
2026-04-11 17:19 65.90414 161.82583 16257 ft 254 kts 218°
2026-04-11 17:19 65.89046 161.79862 16261 ft 254 kts 218°
2026-04-11 17:20 65.87678 161.77140 16253 ft 254 kts 218°
2026-04-11 17:20 65.86306 161.74417 16254 ft 254 kts 218°
2026-04-11 17:20 65.84935 161.71701 16250 ft 254 kts 218°
2026-04-11 17:20 65.83564 161.68988 16257 ft 255 kts 218°
2026-04-11 17:21 65.82187 161.66270 16250 ft 255 kts 218°
2026-04-11 17:21 65.80813 161.63560 16255 ft 255 kts 218°
2026-04-11 17:21 65.79441 161.60851 16252 ft 255 kts 218°
2026-04-11 17:21 65.78063 161.58143 16248 ft 255 kts 218°
2026-04-11 17:22 65.76687 161.55440 16247 ft 255 kts 218°
2026-04-11 17:22 65.75312 161.52741 16250 ft 255 kts 218°
2026-04-11 17:22 65.73935 161.50043 16256 ft 255 kts 218°
2026-04-11 17:22 65.72556 161.47347 16248 ft 255 kts 218°
2026-04-11 17:23 65.71180 161.44660 16252 ft 255 kts 218°
2026-04-11 17:23 65.69802 161.41966 16247 ft 255 kts 218°
2026-04-11 17:23 65.68420 161.39278 16247 ft 255 kts 218°
2026-04-11 17:23 65.67040 161.36592 16248 ft 255 kts 218°
2026-04-11 17:24 65.65661 161.33912 16257 ft 255 kts 218°
2026-04-11 17:24 65.64278 161.31232 16254 ft 255 kts 218°
2026-04-11 17:24 65.62895 161.28555 16244 ft 255 kts 218°
2026-04-11 17:24 65.61515 161.25881 16246 ft 255 kts 218°
2026-04-11 17:25 65.60129 161.23204 16249 ft 255 kts 218°
2026-04-11 17:25 65.58743 161.20533 16251 ft 255 kts 218°
2026-04-11 17:25 65.57358 161.17863 16253 ft 255 kts 218°
2026-04-11 17:25 65.55971 161.15193 16245 ft 255 kts 218°
2026-04-11 17:26 65.54584 161.12531 16247 ft 256 kts 218°
2026-04-11 17:26 65.53194 161.09868 16247 ft 256 kts 218°
2026-04-11 17:26 65.51805 161.07204 16253 ft 255 kts 218°
2026-04-11 17:26 65.50418 161.04546 16249 ft 255 kts 218°
2026-04-11 17:27 65.49029 161.01897 16244 ft 255 kts 217°
2026-04-11 17:27 65.47638 160.99247 16248 ft 255 kts 218°
2026-04-11 17:27 65.46248 160.96596 16248 ft 256 kts 218°
2026-04-11 17:27 65.44853 160.93941 16253 ft 256 kts 218°
2026-04-11 17:28 65.43457 160.91289 16246 ft 256 kts 218°
2026-04-11 17:28 65.42064 160.88649 16252 ft 256 kts 218°
2026-04-11 17:28 65.40669 160.86008 16250 ft 256 kts 218°
2026-04-11 17:28 65.39276 160.83373 16248 ft 256 kts 218°
2026-04-11 17:29 65.37880 160.80731 16247 ft 256 kts 218°
2026-04-11 17:29 65.36483 160.78096 16248 ft 256 kts 217°
2026-04-11 17:29 65.35085 160.75467 16252 ft 256 kts 218°
2026-04-11 17:29 65.33689 160.72842 16247 ft 256 kts 218°
2026-04-11 17:30 65.32292 160.70213 16252 ft 256 kts 218°
2026-04-11 17:30 65.30894 160.67589 16253 ft 256 kts 218°
2026-04-11 17:30 65.29492 160.64967 16253 ft 256 kts 218°
2026-04-11 17:30 65.28090 160.62343 16256 ft 256 kts 218°
2026-04-11 17:31 65.26690 160.59727 16258 ft 256 kts 218°
2026-04-11 17:31 65.25287 160.57111 16248 ft 256 kts 218°
2026-04-11 17:31 65.23802 160.54794 16232 ft 256 kts 203°
2026-04-11 17:31 65.22087 160.53865 16243 ft 255 kts 182°
2026-04-11 17:32 65.20321 160.53907 16246 ft 254 kts 177°
2026-04-11 17:32 65.18554 160.53914 16245 ft 255 kts 181°
2026-04-11 17:32 65.16789 160.53624 16254 ft 255 kts 184°
2026-04-11 17:32 65.15017 160.53336 16253 ft 256 kts 182°
2026-04-11 17:33 65.13244 160.53163 16253 ft 256 kts 181°
2026-04-11 17:33 65.11472 160.52977 16247 ft 256 kts 182°
2026-04-11 17:33 65.09696 160.52744 16253 ft 256 kts 182°
2026-04-11 17:33 65.07922 160.52521 16252 ft 256 kts 182°
2026-04-11 17:34 65.06147 160.52324 16258 ft 256 kts 182°
2026-04-11 17:34 65.04369 160.52113 16257 ft 256 kts 182°
2026-04-11 17:34 65.02592 160.51886 16254 ft 256 kts 182°
2026-04-11 17:34 65.00812 160.51681 16248 ft 257 kts 182°
2026-04-11 17:35 64.99035 160.51476 16256 ft 257 kts 182°
2026-04-11 17:35 64.97255 160.51263 16256 ft 256 kts 182°
2026-04-11 17:35 64.95478 160.51048 16250 ft 256 kts 182°
2026-04-11 17:35 64.93700 160.50838 16254 ft 256 kts 182°
2026-04-11 17:36 64.91923 160.50630 16257 ft 256 kts 182°
2026-04-11 17:36 64.90144 160.50419 16252 ft 256 kts 182°
2026-04-11 17:36 64.88368 160.50207 16249 ft 256 kts 182°
2026-04-11 17:36 64.86589 160.49999 16249 ft 256 kts 182°
2026-04-11 17:37 64.84809 160.49790 16254 ft 257 kts 182°
2026-04-11 17:37 64.83031 160.49582 16249 ft 257 kts 182°
2026-04-11 17:37 64.81251 160.49371 16254 ft 257 kts 182°
2026-04-11 17:37 64.79470 160.49163 16253 ft 257 kts 182°
2026-04-11 17:38 64.77687 160.48955 16248 ft 257 kts 182°
2026-04-11 17:38 64.75905 160.48743 16249 ft 257 kts 182°
2026-04-11 17:38 64.74119 160.48536 16249 ft 257 kts 182°
2026-04-11 17:38 64.72336 160.48334 16256 ft 257 kts 182°
2026-04-11 17:39 64.70548 160.48123 16247 ft 257 kts 182°
2026-04-11 17:39 64.68764 160.47911 16244 ft 258 kts 182°
2026-04-11 17:39 64.66976 160.47707 16254 ft 258 kts 182°
2026-04-11 17:39 64.65187 160.47500 16248 ft 258 kts 182°
2026-04-11 17:40 64.63398 160.47289 16248 ft 258 kts 182°
2026-04-11 17:40 64.61606 160.47083 16249 ft 258 kts 182°
2026-04-11 17:40 64.59818 160.46881 16251 ft 258 kts 182°
2026-04-11 17:40 64.58023 160.46672 16255 ft 259 kts 182°
2026-04-11 17:41 64.56231 160.46462 16248 ft 259 kts 182°
2026-04-11 17:41 64.54432 160.46257 16246 ft 259 kts 182°
2026-04-11 17:41 64.52635 160.46053 16247 ft 259 kts 182°
2026-04-11 17:41 64.50837 160.45843 16248 ft 259 kts 182°
2026-04-11 17:42 64.49035 160.45635 16249 ft 260 kts 182°
2026-04-11 17:42 64.47234 160.45434 16245 ft 260 kts 182°
2026-04-11 17:42 64.45427 160.45227 16249 ft 261 kts 183°
2026-04-11 17:43 64.41797 160.44809 16247 ft 262 kts 182°
2026-04-11 17:43 64.39980 160.44612 16255 ft 262 kts 182°
2026-04-11 17:43 64.38165 160.44399 16242 ft 262 kts 183°
2026-04-11 17:43 64.36344 160.44185 16244 ft 263 kts 183°
2026-04-11 17:44 64.34521 160.43983 16239 ft 263 kts 182°
2026-04-11 17:44 64.32700 160.43782 16251 ft 262 kts 183°
2026-04-11 17:44 64.30879 160.43573 16246 ft 263 kts 183°
2026-04-11 17:44 64.29059 160.43367 16240 ft 262 kts 183°
2026-04-11 17:45 64.27239 160.43161 16242 ft 262 kts 183°
2026-04-11 17:45 64.25415 160.42956 16239 ft 263 kts 183°
2026-04-11 17:45 64.23597 160.42750 16236 ft 262 kts 183°
2026-04-11 17:45 64.21780 160.42545 16240 ft 262 kts 183°
2026-04-11 17:46 64.19966 160.42345 16241 ft 262 kts 183°
2026-04-11 17:46 64.18151 160.42142 16244 ft 262 kts 183°
2026-04-11 17:46 64.16334 160.41930 16243 ft 261 kts 183°
2026-04-11 17:46 64.14526 160.41730 16240 ft 261 kts 183°
2026-04-11 17:47 64.12714 160.41539 16237 ft 261 kts 183°
2026-04-11 17:47 64.10899 160.41332 16229 ft 261 kts 183°
2026-04-11 17:47 64.09090 160.41128 16243 ft 261 kts 183°
2026-04-11 17:47 64.07276 160.40929 16236 ft 261 kts 183°
2026-04-11 17:48 64.03650 160.40520 16236 ft 261 kts 183°
2026-04-11 17:48 64.01838 160.40323 16235 ft 261 kts 183°
2026-04-11 17:48 64.00025 160.40126 16237 ft 261 kts 183°
2026-04-11 17:49 63.96401 160.39721 16238 ft 261 kts 183°
2026-04-11 17:49 63.92773 160.39324 16236 ft 262 kts 183°
2026-04-11 17:50 63.90959 160.39122 16229 ft 262 kts 183°
2026-04-11 17:50 63.89144 160.38926 16237 ft 262 kts 183°
2026-04-11 17:50 63.87330 160.38724 16237 ft 262 kts 183°
2026-04-11 17:50 63.85513 160.38529 16231 ft 262 kts 183°
2026-04-11 17:51 63.83697 160.38329 16233 ft 262 kts 183°
2026-04-11 17:51 63.80058 160.37935 16232 ft 262 kts 183°
2026-04-11 17:51 63.78243 160.37730 16236 ft 262 kts 183°
2026-04-11 17:52 63.76425 160.37534 16229 ft 262 kts 183°
2026-04-11 17:52 63.74608 160.37339 16232 ft 262 kts 183°
2026-04-11 17:52 63.72792 160.37141 16233 ft 262 kts 183°
2026-04-11 17:52 63.70973 160.36945 16234 ft 263 kts 183°
2026-04-11 17:53 63.69150 160.36747 16229 ft 262 kts 183°
2026-04-11 17:53 63.67331 160.36549 16230 ft 262 kts 183°
2026-04-11 17:53 63.65510 160.36355 16235 ft 263 kts 183°
2026-04-11 17:53 63.63690 160.36159 16224 ft 263 kts 184°
2026-04-11 17:54 63.61870 160.35959 16228 ft 262 kts 184°
2026-04-11 17:54 63.60047 160.35762 16219 ft 262 kts 183°
2026-04-11 17:54 63.58229 160.35574 16223 ft 262 kts 183°
2026-04-11 17:54 63.56412 160.35378 16221 ft 262 kts 184°
2026-04-11 17:55 63.54594 160.35178 16222 ft 262 kts 184°
2026-04-11 17:55 63.52775 160.34985 16220 ft 262 kts 183°
2026-04-11 17:55 63.50956 160.34795 16225 ft 262 kts 183°
2026-04-11 17:55 63.49142 160.34599 16220 ft 262 kts 184°
2026-04-11 17:56 63.47324 160.34402 16219 ft 262 kts 184°
2026-04-11 17:56 63.45504 160.34211 16216 ft 262 kts 184°
2026-04-11 17:56 63.43685 160.34019 16212 ft 262 kts 184°
2026-04-11 17:56 63.41868 160.33822 16216 ft 262 kts 184°
2026-04-11 17:57 63.40047 160.33630 16219 ft 263 kts 184°
2026-04-11 17:57 63.38222 160.33445 16217 ft 263 kts 183°
2026-04-11 17:57 63.36396 160.33254 16214 ft 263 kts 184°
2026-04-11 17:57 63.34566 160.33045 16204 ft 264 kts 184°
2026-04-11 17:58 63.32740 160.32846 16210 ft 263 kts 184°
2026-04-11 17:58 63.30911 160.32672 16207 ft 263 kts 183°
2026-04-11 17:58 63.29088 160.32483 16211 ft 263 kts 184°
2026-04-11 17:58 63.27265 160.32281 16206 ft 263 kts 184°
2026-04-11 17:59 63.25443 160.32091 16210 ft 263 kts 184°
2026-04-11 17:59 63.23620 160.31903 16212 ft 263 kts 184°
2026-04-11 17:59 63.21796 160.31711 16219 ft 263 kts 184°
2026-04-11 17:59 63.19971 160.31517 16209 ft 263 kts 184°
2026-04-11 18:00 63.18146 160.31332 16212 ft 264 kts 184°
2026-04-11 18:00 63.16313 160.31137 16200 ft 264 kts 184°
2026-04-11 18:00 63.14485 160.30946 16200 ft 264 kts 184°
2026-04-11 18:00 63.12652 160.30756 16198 ft 264 kts 184°
2026-04-11 18:01 63.10819 160.30567 16196 ft 264 kts 184°
2026-04-11 18:01 63.08987 160.30374 16194 ft 264 kts 184°
2026-04-11 18:01 63.07156 160.30188 16204 ft 264 kts 184°
2026-04-11 18:01 63.05322 160.29998 16200 ft 265 kts 184°
2026-04-11 18:02 63.03482 160.29806 16199 ft 266 kts 184°
2026-04-11 18:02 63.01639 160.29614 16204 ft 266 kts 184°
2026-04-11 18:02 62.99793 160.29424 16197 ft 266 kts 184°
2026-04-11 18:02 62.97952 160.29236 16188 ft 266 kts 184°
2026-04-11 18:03 62.96110 160.29049 16187 ft 266 kts 184°
2026-04-11 18:03 62.94270 160.28856 16197 ft 265 kts 184°
2026-04-11 18:03 62.92430 160.28667 16201 ft 265 kts 184°
2026-04-11 18:03 62.90588 160.28480 16191 ft 265 kts 185°
2026-04-11 18:04 62.88754 160.28292 16196 ft 265 kts 185°
2026-04-11 18:04 62.86916 160.28107 16191 ft 265 kts 184°
2026-04-11 18:04 62.85075 160.27918 16193 ft 265 kts 185°
2026-04-11 18:04 62.83239 160.27727 16193 ft 265 kts 185°
2026-04-11 18:05 62.81399 160.27542 16188 ft 266 kts 185°
2026-04-11 18:05 62.79554 160.27356 16189 ft 266 kts 185°
2026-04-11 18:05 62.77707 160.27167 16188 ft 266 kts 185°
2026-04-11 18:05 62.75865 160.26980 16189 ft 266 kts 185°
2026-04-11 18:06 62.74021 160.26800 16194 ft 266 kts 185°
2026-04-11 18:06 62.72176 160.26603 16191 ft 266 kts 185°
2026-04-11 18:06 62.70332 160.26412 16185 ft 266 kts 185°
2026-04-11 18:06 62.68489 160.26237 16181 ft 266 kts 185°
2026-04-11 18:07 62.66642 160.26051 16185 ft 266 kts 185°
2026-04-11 18:07 62.64797 160.25860 16187 ft 266 kts 185°
2026-04-11 18:07 62.62955 160.25676 16181 ft 266 kts 185°
2026-04-11 18:07 62.61109 160.25492 16182 ft 266 kts 185°
2026-04-11 18:08 62.59265 160.25306 16176 ft 266 kts 185°
2026-04-11 18:08 62.57418 160.25122 16184 ft 266 kts 185°
2026-04-11 18:08 62.55567 160.24937 16180 ft 267 kts 185°
2026-04-11 18:08 62.53719 160.24754 16177 ft 267 kts 185°
2026-04-11 18:09 62.51867 160.24565 16182 ft 267 kts 185°
2026-04-11 18:09 62.50012 160.24378 16173 ft 268 kts 185°
2026-04-11 18:09 62.48158 160.24197 16173 ft 267 kts 185°
2026-04-11 18:09 62.46304 160.24014 16176 ft 267 kts 185°
2026-04-11 18:10 62.44452 160.23828 16170 ft 267 kts 185°
2026-04-11 18:10 62.42595 160.23644 16173 ft 267 kts 185°
2026-04-11 18:10 62.40744 160.23462 16175 ft 267 kts 185°
2026-04-11 18:10 62.38888 160.23278 16177 ft 267 kts 186°
2026-04-11 18:11 62.37032 160.23093 16170 ft 268 kts 186°
2026-04-11 18:11 62.35175 160.22913 16176 ft 268 kts 186°
2026-04-11 18:11 62.33318 160.22728 16173 ft 268 kts 186°
2026-04-11 18:11 62.31458 160.22544 16176 ft 268 kts 186°
2026-04-11 18:12 62.29601 160.22363 16176 ft 268 kts 186°
2026-04-11 18:12 62.27739 160.22179 16174 ft 269 kts 186°
2026-04-11 18:12 62.25877 160.21995 16173 ft 269 kts 186°
2026-04-11 18:12 62.24011 160.21815 16176 ft 269 kts 186°
2026-04-11 18:13 62.22145 160.21631 16175 ft 269 kts 186°
2026-04-11 18:13 62.20278 160.21448 16171 ft 269 kts 186°
2026-04-11 18:13 62.18415 160.21269 16176 ft 269 kts 186°
2026-04-11 18:13 62.16548 160.21084 16173 ft 269 kts 186°
2026-04-11 18:14 62.14678 160.20901 16175 ft 269 kts 186°
2026-04-11 18:14 62.12807 160.20721 16176 ft 270 kts 186°
2026-04-11 18:14 62.10939 160.20541 16173 ft 270 kts 186°
2026-04-11 18:14 62.09066 160.20357 16173 ft 270 kts 186°
2026-04-11 18:15 62.07196 160.20178 16174 ft 270 kts 186°
2026-04-11 18:15 62.05328 160.19995 16174 ft 270 kts 186°
2026-04-11 18:15 62.03456 160.19815 16175 ft 270 kts 186°
2026-04-11 18:15 62.01583 160.19635 16174 ft 270 kts 186°
2026-04-11 18:16 61.99710 160.19453 16178 ft 270 kts 186°
2026-04-11 18:16 61.97838 160.19272 16176 ft 270 kts 186°
2026-04-11 18:16 61.95963 160.19095 16178 ft 270 kts 186°
2026-04-11 18:16 61.94090 160.18915 16178 ft 270 kts 186°
2026-04-11 18:17 61.92221 160.18734 16176 ft 270 kts 186°
2026-04-11 18:17 61.90345 160.18552 16177 ft 270 kts 186°
2026-04-11 18:17 61.88471 160.18375 16175 ft 270 kts 186°
2026-04-11 18:17 61.86599 160.18197 16177 ft 270 kts 186°
2026-04-11 18:18 61.84726 160.18017 16174 ft 270 kts 186°
2026-04-11 18:18 61.82853 160.17839 16174 ft 270 kts 186°
2026-04-11 18:18 61.80979 160.17660 16175 ft 270 kts 186°
2026-04-11 18:18 61.79108 160.17482 16176 ft 270 kts 187°
2026-04-11 18:19 61.77232 160.17303 16171 ft 270 kts 187°
2026-04-11 18:19 61.75362 160.17126 16178 ft 270 kts 187°
2026-04-11 18:19 61.73489 160.16950 16174 ft 270 kts 187°
2026-04-11 18:19 61.71619 160.16772 16172 ft 270 kts 187°
2026-04-11 18:20 61.69750 160.16594 16175 ft 270 kts 187°
2026-04-11 18:20 61.67877 160.16418 16173 ft 270 kts 187°
2026-04-11 18:20 61.66012 160.16242 16171 ft 269 kts 187°
2026-04-11 18:20 61.64143 160.16067 16171 ft 269 kts 187°
2026-04-11 18:21 61.62274 160.15891 16171 ft 269 kts 187°
2026-04-11 18:21 61.60408 160.15715 16170 ft 269 kts 187°
2026-04-11 18:21 61.58544 160.15540 16173 ft 269 kts 187°
2026-04-11 18:21 61.56679 160.15366 16170 ft 269 kts 187°
2026-04-11 18:22 61.54816 160.15191 16172 ft 268 kts 187°
2026-04-11 18:22 61.52957 160.15017 16169 ft 268 kts 187°
2026-04-11 18:22 61.51096 160.14844 16169 ft 268 kts 187°
2026-04-11 18:22 61.49235 160.14670 16169 ft 268 kts 187°
2026-04-11 18:23 61.47375 160.14494 16172 ft 268 kts 187°
2026-04-11 18:23 61.45513 160.14324 16171 ft 268 kts 187°
2026-04-11 18:23 61.43652 160.14151 16166 ft 268 kts 187°
2026-04-11 18:23 61.41790 160.13976 16169 ft 268 kts 187°
2026-04-11 18:24 61.39932 160.13805 16172 ft 268 kts 187°
2026-04-11 18:24 61.38072 160.13631 16178 ft 268 kts 187°